Regional Weather Roundup
Issued by NWS

Home | Current Version | Previous Version | Text Only | Print | Product List | Glossary Off
Versions: 1 2 3 4 5 6 7 8 9 10 11 12 13 14 15 16 17 18 19 20 21 22 23 24 25 26 27 28 29 30 31 32 33 34 35 36 37 38 39 40 41 42 43 44 45 46 47 48 49 50

000
ASUS45 KABQ 202310
RWRNM
WEATHER ROUNDUP FOR NEW MEXICO
NATIONAL WEATHER SERVICE ALBUQUERQUE NM
400 PM MST SAT DEC 20 2014

NOTE: "FAIR" MEANS FEW OR NO CLOUDS BELOW 12,000 FEET AGL WITH NO
       SIGNIFICANT WEATHER OR OBSTRUCTIONS TO VISION.

      THIS PRODUCT IS RELEASED AS TWO VERSIONS.  ONE VERSION NEAR
      THE TOP OF THE HOUR CONTAINING PRELIMINARY DATA FROM ALBUQUERQUE
      AND OTHER STATIONS.  A FINAL VERSION WITH ADDITIONAL DATA IS
      ISSUED ABOUT 10 MINUTES AFTER THE HOUR.

NMZ501-503-504-510>518-210000-
NORTHWEST PLATEAU/NORTHCENTRAL MOUNTAINS

CITY           SKY/WX    TMP DP  RH WIND       PRES   REMARKS
FARMINGTON     CLEAR     39  28  64 W8        30.10S WCI  33
LOS ALAMOS     CLEAR     39  23  53 S6        30.07S WCI  35
SANTA FE       CLEAR     39  22  50 W9        30.06R WCI  33
TAOS           CLEAR     39  18  41 CALM      30.07R
ANGEL FIRE     FAIR      35  17  46 W10       30.06R WCI  28

$$
NMZ402-403-502-505>509-210000-
WESTCENTRAL MOUNTAINS/SOUTHWEST MOUNTAINS

CITY           SKY/WX    TMP DP  RH WIND       PRES   REMARKS
GALLUP         MOSUNNY   43  28  55 SW6       30.10R
GRANTS         CLEAR     45  20  37 N5        30.09F
SILVER CITY    SUNNY     52  14  22 W6        30.10S

$$
NMZ407-409-411-412-210000-
SOUTHERN DESERTS

CITY           SKY/WX    TMP DP  RH WIND       PRES   REMARKS
LORDSBURG      FAIR      50  32  50 W5        30.08F
DEMING         SUNNY     53  27  36 W8        30.07F
LAS CRUCES     SUNNY     52  25  35 W6        30.08F
HOLLOMAN AFB   MOSUNNY   51  23  33 CALM      30.06F
ALAMOGORDO     MOSUNNY   52  19  28 NW7       30.08S
T OR C         SUNNY     51  20  29 VRB3      30.06F

$$
NMZ519>523-210000-
CENTRAL VALLEYS/CENTRAL HIGHLANDS

CITY           SKY/WX    TMP DP  RH WIND       PRES   REMARKS
ALBUQUERQUE    PTCLDY    44  25  47 CALM      30.09S
DOUBLE EAGLE   CLEAR     43  25  49 CALM      30.09S
MORIARTY ARPT  FAIR      44  22  40 NW8       30.07R
CLINES CORNERS CLEAR     41  17  38 NW21      30.03R
BELEN          FAIR      46  23  39 NE5       30.08S
SOCORRO        FAIR      49  24  37 SE3       30.08S

$$
NMZ524>526-539-540-210000-
SOUTHCENTRAL MOUNTAINS

CITY           SKY/WX    TMP DP  RH WIND       PRES   REMARKS
RUIDOSO        CLEAR     41  18  38 NW14      30.07S

$$
NMZ527>531-210000-
NORTHEAST HIGHLANDS/NORTHEAST PLAINS

CITY           SKY/WX    TMP DP  RH WIND       PRES   REMARKS
LAS VEGAS      CLEAR     46   8  21 S13       29.99S
RATON          CLEAR     48  11  22 S9        29.95R
CLAYTON        MOCLDY    48  23  37 SE7       29.95S

$$
NMZ532>537-210000-
EASTCENTRAL PLAINS

CITY           SKY/WX    TMP DP  RH WIND       PRES   REMARKS
TUCUMCARI      MOCLDY    51  23  33 E3        29.95F
CANNON AFB     MOCLDY    50  19  29 W7        29.99R
CLOVIS AIRPORT PTCLDY    48  19  32 SW9       29.99R

$$
NMZ028-029-538-210000-
SOUTHEAST PLAINS

CITY           SKY/WX    TMP DP  RH WIND       PRES   REMARKS
ROSWELL        PTCLDY    55  24  30 SE7       30.00S
ARTESIA        PTCLDY    55  30  38 SE8       30.00S
CARLSBAD       CLEAR     59  28  30 VRB7      29.98F
HOBBS          CLEAR     55  25  30 SW9       30.02S


$$


USA.gov is the U.S. government's official web portal to all federal, state and local government web resources and services.